World > North America > United States > Minnesota > Thunder Lake

Hourly Thunder Lake, MN Regional Weather

Feedback E-mail the Weather

Quick WX

Thunder Lake, MN Weather Maps

°F °C°F °C
Thunder Lake Weather Map
UTC Time: 8/9/2022, 22:53
Your Time:

Thunder Lake, MN Regional Weather

Expires:202208092300;;756711
ASUS43 KMPX 092210
RWRMN 
WEATHER ROUNDUP FOR MINNESOTA
NATIONAL WEATHER SERVICE TWIN CITIES/CHANHASSEN MN
500 PM CDT TUE AUG 09 2022


NOTE: "FAIR" INDICATES FEW OR NO CLOUDS BELOW 12,000 FEET WITH NO
SIGNIFICANT WEATHER AND/OR OBSTRUCTIONS TO VISIBILITY. N/A MEANS
CURRENT SKY AND/OR WEATHER CONDITIONS ARE NOT AVAILABLE.


MNZ006-009>011-018-025>026-092300-
   North Central Minnesota   
  
CITY           SKY/WX    TMP DP  RH WIND       PRES   REMARKS
BAUDETTE       SUNNY     82  58  43 NW10      30.01R                  
INTL FALLS     MOSUNNY   81  59  47 MISG      29.97R                  
WASKISH        SUNNY     81  68  65 SW12      30.00S                  
BIG FORK       SUNNY     84  63  48 SW9       30.05S                  
LONGVILLE      SUNNY     82  57  42 S8        30.03S                  
GRAND RAPIDS   SUNNY     82  61  48 SW6       30.05S                  
CRANE LAKE     PTSUNNY   81  59  47 SW7       29.98S                  
ORR            SUNNY     82  61  47 SW10G20   29.97S                  
COOK           SUNNY     82  57  42 W10G16    29.99F                  
WALKER         CLEAR     83  61  46 SW6       30.03S                  
$$

SKY/WX - Weather  TMP - Temperature  DP - Dew Point  RH - Humidity
WIND - Wind Direction/Speed PRES - Barometric Pressure VSB - Visibility
WCI - Wind Chill Index E13G22 Wind - East Wind 13 mph/Gusts of 22 mph

Trending Headlines

Thunder Lake Radar Loop



Thunder Lake Quick Facts


National Two Day Weather Forecast


E-mail the Thunder Lake Weather Forecast

Voice your opinion or tell us about page issues...